Regional Weather Roundup
Issued by NWS State College, PA

Home | Current Version | Previous Version | Graphics & Text | Print | Product List | Glossary Off
Versions: 1 2 3 4 5 6 7 8 9 10 11 12 13 14 15 16 17 18 19 20 21 22 23 24 25 26 27 28 29 30 31 32 33 34 35 36 37 38 39 40 41 42 43 44 45 46 47 48 49 50

000
ASUS41 KCTP 051703
RWRCTP

REGIONAL WEATHER ROUNDUP
NATIONAL WEATHER SERVICE STATE COLLEGE PA
100 PM EDT THU MAY 05 2016

Note: "fair" indicates few or no clouds below 12,000 feet with no
significant weather and/or obstructions to visibility.

* = STATION THAT DOES NOT REPORT PRECIPITATION /E.G. RAIN...SNOW...ETC/
    THUNDER OR FOG.

PAZ002>004-007>009-013>016-020>023-029>032-051800-
WESTERN PENNSYLVANIA

CITY           SKY/WX    TMP DP  RH WIND       PRES   REMARKS
ERIE           CLOUDY    54  46  74 NE15      29.79S
MEADVILLE      LGT RAIN  54  50  86 N9        29.74S
FRANKLIN*      CLOUDY    55  46  71 NE6       29.74S
NEW CASTLE     CLOUDY    57  50  77 N8        29.74F
BEAVER COUNTY  LGT RAIN  55  48  76 N5G20     29.73S
BUTLER*        MOSUNNY   59  48  67 NE8       29.74F
PITTSBURGH INT CLOUDY    59  46  62 N10       29.70F
PITTSBURGH     CLOUDY    58  46  64 N6        29.69F
INDIANA*       CLOUDY    59  46  63 VRB7      29.71F
LATROBE        PTSUNNY   59  48  67 NE7       29.69F
WASHINGTON CO* CLOUDY    57  46  67 N8        29.71S
$$

PAZ004>006-010>012-017>019-024>028-033>037-041-042-045-046-049>053-051800-
CENTRAL PENNSYLVANIA

CITY           SKY/WX    TMP DP  RH WIND       PRES   REMARKS
BRADFORD       CLOUDY    53  40  61 N9        29.74S
DUBOIS         CLOUDY   N/A N/A N/A NE14      29.69F
CLEARFIELD     PTSUNNY   60  43  53 VRB7      29.69F
JOHNSTOWN      CLOUDY    54  42  64 N12       29.68S
ALTOONA        CLOUDY    53  45  74 VRB6      29.70F
STATE COLLEGE  CLOUDY    55  46  71 E9        29.70F
WILLIAMSPORT   CLOUDY    56  41  57 N9        29.71S
SELINSGROVE    CLOUDY    55  45  68 NE7       29.70F
FT INDIANTOWN  CLOUDY    55  45  68 VRB5      29.68F
CAPITAL CITY   CLOUDY    57  44  62 NE8       29.68F
HARRISBURG     CLOUDY    55  45  68 E7        29.68F
YORK           CLOUDY    52  46  80 E6        29.68F
$$

PAZ038>040-043-044-047-048-054-055-060>062-067>071-051800-
EASTERN PENNSYLVANIA

CITY           SKY/WX    TMP DP  RH WIND       PRES   REMARKS
SCRANTON       CLOUDY    54  43  66 N8        29.69F
MOUNT POCONO   CLOUDY    47  42  83 E12       29.68F
ALLENTOWN      CLOUDY    57  45  64 NE12      29.68F
QUAKERTOWN*    CLOUDY    54  45  71 NE10      29.68F
READING        CLOUDY    55  45  68 VRB6      29.67F
LANCASTER      CLOUDY    53  45  74 NE9       29.68F
COATESVILLE    CLOUDY    52  50  93 MISG      29.68F
POTTSTOWN      CLOUDY    53  45  74 N8        29.68F
BLUE BELL      CLOUDY    52  45  76 CALM      29.66F
DOYLESTOWN     CLOUDY    53  45  74 N8        29.66F
WILLOW GROVE   NOT AVBL
NORTH PHILA    CLOUDY    54  46  74 N12       29.68F
PHILADELPHIA   CLOUDY    56  45  66 NE10      29.66F
$$




USA.gov is the U.S. government's official web portal to all federal, state and local government web resources and services.